| time (UTC) | temp C | wind direction | speed KPH | gust KPH | rain 1hr cm | rain 24hr cm | rain mn cm | humidity % | barometer mb |
| 20260504170611 | 26 | 315 | 0.0 | 3.2 | 0.00 | 0.00 | 0.00 | 31 | 1009.4 |
| 20260504150547 | 26 | 274 | 3.2 | 6.4 | 0.00 | 0.00 | 0.00 | 30 | 1009.8 |
| 20260504140535 | 27 | 280 | 3.2 | 8.0 | 0.00 | 0.00 | 0.00 | 29 | 1010.1 |
| 20260504110556 | 23 | 109 | 1.6 | 6.4 | 0.00 | 0.00 | 0.00 | 37 | 1011.5 |
| 20260504100544 | 22 | 275 | 4.8 | 9.7 | 0.00 | 0.00 | 0.00 | 40 | 1012.1 |
| 20260504090123 | 20 | 272 | 14.5 | 14.5 | 0.00 | 0.00 | 0.00 | 41 | 1012.3 |
| 20260503204250 | 20 | 273 | 1.6 | 4.8 | 0.00 | 0.00 | 0.00 | 37 | 1012.7 |
| 20260503202747 | 20 | 282 | 1.6 | 9.7 | 0.00 | 0.00 | 0.00 | 36 | 1012.6 |
| 20260503201244 | 20 | 275 | 3.2 | 6.4 | 0.00 | 0.00 | 0.00 | 35 | 1012.6 |
| 20260503195741 | 21 | 270 | 1.6 | 4.8 | 0.00 | 0.00 | 0.00 | 34 | 1012.6 |
| 20260503194238 | 21 | 271 | 3.2 | 8.0 | 0.00 | 0.00 | 0.00 | 34 | 1012.7 |
| 20260503192735 | 21 | 270 | 4.8 | 8.0 | 0.00 | 0.00 | 0.00 | 33 | 1012.7 |
| 20260503191232 | 21 | 270 | 6.4 | 9.7 | 0.00 | 0.00 | 0.00 | 32 | 1012.6 |
| 20260503185729 | 22 | 284 | 6.4 | 6.4 | 0.00 | 0.00 | 0.00 | 32 | 1012.5 |
| 20260503184226 | 22 | 276 | 4.8 | 9.7 | 0.00 | 0.00 | 0.00 | 31 | 1012.4 |
| 20260503182723 | 22 | 276 | 3.2 | 8.0 | 0.00 | 0.00 | 0.00 | 30 | 1012.2 |
| 20260503181220 | 23 | 270 | 0.0 | 9.7 | 0.00 | 0.00 | 0.00 | 29 | 1012.2 |
| 20260503175717 | 23 | 275 | 3.2 | 8.0 | 0.00 | 0.00 | 0.00 | 28 | 1012.1 |
| 20260503174213 | 24 | 271 | 4.8 | 6.4 | 0.00 | 0.00 | 0.00 | 27 | 1012.0 |
| 20260503172710 | 25 | 272 | 9.7 | 11.3 | 0.00 | 0.00 | 0.00 | 25 | 1012.1 |